Regional Weather Roundup
Issued by NWS Newport/Morehead, NC

Current Version | Previous Version | Text Only | Print | Product List | Glossary On
Versions: 1 2 3 4 5 6 7 8 9 10 11 12 13 14 15 16 17 18 19 20 21 22 23 24 25 26 27 28 29 30 31 32 33 34 35 36 37 38 39 40 41 42 43 44 45 46 47 48 49 50
000
ASUS42 KMHX 280113
RWRMHX
WEATHER ROUNDUP FOR EASTERN NORTH CAROLINA
NATIONAL WEATHER SERVICE NEWPORT/MOREHEAD CITY NC
900 PM EDT TUE JUN 27 2017

NOTE: "FAIR" INDICATES FEW OR NO CLOUDS BELOW 12,000 FEET
WITH NO SIGNIFICANT WEATHER AND/OR OBSTRUCTIONS TO VISIBILITY

NCZ015>017-031-032-045>047-102-103-280200-
NORTH COAST

CITY           SKY/WX    TMP DP  RH WIND       PRES   REMARKS
EDENTON        PTCLDY    77  59  53 NW5       30.01S
ELIZABETH CITY CLOUDY    73  65  75 NE6       30.00S
KITTY HAWK     MOCLDY    70  65  84 N3        29.98S
MANTEO         MOCLDY    70  67  92 CALM      30.00R

$$

NCZ045>047-081-094-103-104-280200-
CENTRAL COAST

CITY           SKY/WX    TMP DP  RH WIND       PRES   REMARKS
FRISCO         NOT AVBL

$$

NCZ095-097-098-100-101-280200-
SOUTHERN COAST

CITY           SKY/WX    TMP DP  RH WIND       PRES   REMARKS
BEAUFORT       CLEAR     78  66  66 SW6       30.00R
CEDAR ISLAND   NOT AVBL
JACKSONVILLE   MOCLDY    75  69  81 NW6       30.00R
PINEY ISLAND   CLEAR    N/A N/A N/A S5        29.99S
WILMINGTON     PTCLDY    76  67  73 CALM      30.01R


$$

NCZ011>013-027>030-043-044-078>080-089-090>093-098-280200-
COASTAL PLAIN

CITY           SKY/WX    TMP DP  RH WIND       PRES   REMARKS
AHOSKIE          N/A     71  58  63 CALM      30.02S
CLINTON        CLOUDY    74  65  74 CALM      30.02R
ELIZABETHTOWN  NOT AVBL
GOLDSBORO      CLEAR     77  57  49 N5        30.01R
GREENVILLE     CLEAR     73  59  60 CALM      30.03R
HAVELOCK       MOCLDY    73  65  75 SW3       30.01S
KENANSVILLE    CLOUDY    72  66  83 CALM      30.02R
KINSTON        CLOUDY    73  63  68 CALM      30.02R
NEW BERN       MOCLDY    75  70  84 CALM      30.02R
RICHLANDS      CLOUDY    74  69  85 CALM      30.02R
ROCKY MOUNT    CLEAR     73  57  57 NW6       30.03R
WASHINGTON     CLOUDY   N/A N/A N/A N3        30.01S
WHITEVILLE     MOCLDY    78  69  73 CALM      30.02R

$$

AMZ130-135-150-152-154-156-158-170-250-252-270-ANZ085-086-088-633-658-670-280200-
MARINE OBSERVATIONS

STATION/POSITION TIME  TEMP    WIND        PRES    WAVE   SWELL
                       AIR SEA DIR/SP/G            HT/PER HT/PER
                 (UTC) (F)     (DEG/KT/KT) (MB)    (FT/S) (FT/S)
CHESAPEAKE LIGHT NOT AVBL
64 E VA BEACH    0050   73 76  300/ 10/ 14 1016.3    1/ 8   2/ 8
DUCK             0042   72 75   30/ 12/ 12 1015.3
2 E DUCK         NOT AVBL
OREGON INLET     0048          300/  8/ 19 1015.9
13E OREGON INLT  0048      74                N/A     1/ 8   2/ 8
HATTERAS CG      0042   78 80  230/  5/  8 1015.5
DIAMOND BUOY     0050   80 82  240/  6/  8 1015.4    2/ 5   2/ 5
CAPE LOOKOUT     0100   79     240/  4/  5 1015.6
BEAUFORT LAB     0042   79 80  230/  2/  4 1015.2
30 SE NEW RVR IN 0008   80 82  210/  6/  8 1015.9
30 SE NEW RVR IN 0043      82                N/A     2/ 8
27 SE WRIGHTSVLE 0008   80 82  180/  6/  8 1015.6
5 SE WRIGHTSVLE  0008   80 80  210/  6/  8 1015.8
225 S CAPE HAT   0050   78 80  210/  2/  2 1015.9    3/ 5   3/ 5
41 SE CHARLESTON 0050   80 81   80/  6/  8 1015.9    2/ 8   2/ 8

$$



USA.gov is the U.S. government's official web portal to all federal, state and local government web resources and services.